[[{"header":{"parameterUnit":"m.s-1","parameterCategory":1,"la1":30.2991,"la2":30.254,"lo1":-89.0895,"lo2":-89.0444,"dy":0.0017,"dx":0.0017,"nx":28,"ny":28,"refTime":"2023-09-08T09:00:00:Z","depth":0,"parameterNumber":2,"parameterNumberName":"U-component_of_WINDS"},"data":[0,0,0,0,0,0,0,0,0,0,0,0,0,0,0,0,0,0,0,0,0,0,0,0,0,0,0,0,0,0,0,0,0,0,0,0,0,0,0,0,0,0,0,0,0,0,0,0,0,0,0,0,0,0,0,0,0,0,0.0668,0.0669,0,0.0792,0.0794,0.0795,0.0897,0.0898,0.09,0.0901,0.1032,0.1034,0.1037,0,0,0,0,0,0,0,0,0,0,0,0,0,0.0523,0.0525,0.0668,0.0669,0.0671,0.0792,0.0794,0.0795,0.0897,0.0899,0.09,0.0901,0.1031,0.1034,0.1037,0,0,0,0,0,0,0,0,0,0,0,0,0,0.061,0.0526,0.0667,0.0736,0.0743,0.0792,0.0794,0.0796,0.0897,0.0899,0.09,0.0902,0.103,0.1034,0.1038,0.1029,0,0,0.1049,0.1051,0,0,0,0,0,0,0,0,0.0605,0.0616,0.0724,0.0731,0.074,0.0831,0.0791,0.0874,0.0897,0.0839,0.0901,0.0902,0.0964,0.0973,0.0993,0.1035,0.1041,0.1049,0.1052,0.1053,0.1054,0,0,0,0,0,0,0,0.0599,0.0611,0.0717,0.0726,0.0735,0.0762,0.0776,0.0807,0.0891,0.0844,0.0852,0.0865,0.0969,0.0989,0.0997,0.1043,0.1049,0.1053,0.1055,0.1056,0.1085,0.1084,0,0,0,0,0,0,0.0582,0.0605,0.0713,0.0721,0.0675,0.0764,0.0779,0.08,0.0891,0.0906,0.0863,0.0869,0.0982,0.0993,0.1002,0.0999,0.1053,0.1057,0.1059,0.1087,0.1085,0.1084,0,0,0,0,0,0,0.0578,0.059,0.0708,0.0665,0.0682,0.0764,0.0787,0.0802,0.0823,0.0906,0.0922,0.0869,0.0984,0.0997,0.1022,0.1005,0.1058,0.1062,0.1089,0.1086,0.1084,0.0991,0,0,0,0,0,0,0.0574,0.0589,0.0585,0.0664,0.0684,0.0723,0.0786,0.0803,0.0828,0.0837,0.0915,0.0929,0.0986,0.1015,0.1025,0.1011,0.1065,0.1091,0.1088,0.1085,0.0996,0.0986,0.0977,0,0,0,0,0,0.0568,0.0554,0.0584,0.0596,0.0681,0.0722,0.0734,0.0798,0.0826,0.0824,0.0878,0.0927,0.1005,0.1017,0.1029,0.1016,0.1092,0.1089,0.1085,0.1,0.0988,0.0977,0,0,0,0,0,0,0.0471,0.0566,0.06,0.0611,0.0658,0.0739,0.0738,0.0783,0.0824,0.083,0.091,0.0927,0.0943,0.0982,0.0994,0.1013,0.1055,0.1054,0.0986,0.0975,0.0966,0.0956,0.1068,0,0,0,0,0,0.0451,0.0476,0.0557,0.0559,0.0581,0.0655,0.0676,0.0721,0.0774,0.0794,0.085,0.09,0.0936,0.0958,0.0996,0.1003,0.1022,0.1,0.099,0.0982,0.098,0.0988,0.0979,0.1073,0.1073,0.1073,0,0,0.041,0.0465,0.0475,0.0541,0.0583,0.0608,0.0671,0.0695,0.0715,0.0799,0.0825,0.0867,0.0929,0.0944,0.0954,0.0978,0.0959,0.0978,0.0971,0.0973,0.0983,0.0975,0.0967,0.107,0.1071,0.1071,0,0,0.0347,0.0391,0.0397,0.0438,0.05,0.055,0.0551,0.0627,0.0658,0.0685,0.0749,0.0775,0.0835,0.0876,0.0905,0.086,0.0907,0.087,0.0821,0.0828,0.082,0.0814,0.0799,0.0792,0.0868,0.0868,0.0868,0,0.0288,0.0327,0.0395,0.0415,0.0443,0.0519,0.0528,0.0564,0.0636,0.0654,0.0679,0.0756,0.0803,0.083,0.0819,0.084,0.0845,0.0861,0.0816,0.081,0.0805,0.0792,0.0785,0.0863,0.0863,0.0864,0.0864,0,0.0252,0.0278,0.0277,0.0342,0.037,0.0384,0.0456,0.0477,0.052,0.0568,0.0596,0.0655,0.0706,0.0716,0.0759,0.075,0.0763,0.08,0.0844,0.079,0.0779,0.0774,0.0856,0.0858,0.0859,0.086,0,0,0.0131,0.0235,0.0233,0.0265,0.034,0.0362,0.038,0.0429,0.0446,0.0493,0.0511,0.0561,0.0597,0.063,0.0678,0.0684,0.0645,0.0722,0.0725,0.0706,0.064,0.061,0.0603,0.0677,0.0677,0.0676,0.0635,0,0.0081,0.0116,0.0179,0.0194,0.022,0.0294,0.031,0.0359,0.0404,0.0434,0.0486,0.0519,0.0564,0.0584,0.0593,0.0648,0.0633,0.0652,0.0696,0.0697,0.0678,0.0597,0.0566,0.0524,0.0631,0.063,0.0629,0,0.0026,0.0068,0.0086,0.016,0.0173,0.0186,0.0237,0.0264,0.0322,0.0355,0.0391,0.0445,0.047,0.051,0.0547,0.0558,0.058,0.061,0.061,0.0617,0.0659,0.0601,0.0512,0.0505,0.0623,0.0623,0.0624,0,-0.0064,-0.0003,0.0016,0.0041,0.0128,0.0135,0.0172,0.0231,0.0257,0.0302,0.032,0.0368,0.0394,0.0431,0.0496,0.0519,0.0526,0.0572,0.0555,0.0553,0.0553,0.0552,0.0466,0.0567,0.0567,0.0567,0.0567,0,-0.0127,-0.0119,-0.0023,-0.0012,0.0001,0.0074,0.0084,0.0128,0.018,0.0203,0.027,0.0291,0.0376,0.0407,0.0459,0.0482,0.0493,0.0522,0.0535,0.0515,0.0512,0.0531,0.0535,0.0566,0.0566,0.0566,0.0567,0,-0.0226,-0.0162,-0.0136,-0.0056,-0.0035,-0.003,0.0039,0.0054,0.0104,0.0132,0.0143,0.0222,0.0262,0.0331,0.0391,0.0426,0.0439,0.0463,0.0419,0.0427,0.0407,0.0408,0.033,0.0324,0.0428,0.0427,0.0426,0,-0.0271,-0.0263,-0.0182,-0.0163,-0.0129,-0.0098,-0.0071,0.0002,0.0027,0.0094,0.0101,0.0146,0.0186,0.0246,0.031,0.0357,0.0382,0.0352,0.0389,0.0369,0.0382,0.038,0.0382,0.0342,0.0341,0.034,0.0339,0,-0.0357,-0.0325,-0.029,-0.0244,-0.0214,-0.0173,-0.0129,-0.0116,-0.0033,-0.0007,0.0034,0.0064,0.0126,0.017,0.0226,0.0266,0.0317,0.0326,0.0325,0.0305,0.0279,0.0293,0.0395,0.0328,0.0329,0.033,0.033,0.0331,-0.043,-0.0419,-0.036,-0.0323,-0.0282,-0.0242,-0.0224,-0.0172,-0.0137,-0.0082,-0.004,-0.0003,0.0057,0.0137,0.0174,0.0207,0.023,0.0228,0.0227,0.0226,0.0218,0.0274,0.0217,0.0218,0.0218,0.0218,0.0219,0,-0.0512,-0.0471,-0.0437,-0.0378,-0.0348,-0.0304,-0.0252,-0.023,-0.0198,-0.0147,-0.0109,-0.0062,-0.0018,0.0049,0.0099,0.0112,0.0136,0.0122,0.0122,0.013,0.0194,0.019,0.0101,0.0101,0.0101,0.0101,0.0101,0.0101,-0.0552,-0.0531,-0.0492,-0.045,-0.0407,-0.0371,-0.0345,-0.0307,-0.0266,-0.0216,-0.018,-0.0137,-0.0079,-0.0025,0.0018,0.0037,0.0052,0.0031,0.0057,0.0115,0.0126,0.0136,0.0133,0.0033,0.0033,-0.001,-0.001,-0.001]},{"header":{"parameterUnit":"m.s-1","parameterCategory":1,"la1":30.2991,"la2":30.254,"lo1":-89.0895,"lo2":-89.0444,"dy":0.0017,"dx":0.0017,"nx":28,"ny":28,"refTime":"2023-09-08T09:00:00:Z","depth":0,"parameterNumber":3,"parameterNumberName":"V-component_of_WINDS"},"data":[0,0,0,0,0,0,0,0,0,0,0,0,0,0,0,0,0,0,0,0,0,0,0,0,0,0,0,0,0,0,0,0,0,0,0,0,0,0,0,0,0,0,0,0,0,0,0,0,0,0,0,0,0,0,0,0,0,0,0.5716,0.5715,0,0.5649,0.5649,0.5648,0.5549,0.5547,0.5546,0.5544,0.5475,0.5475,0.5474,0,0,0,0,0,0,0,0,0,0,0,0,0,0.5755,0.5754,0.5716,0.5715,0.5715,0.565,0.5649,0.5648,0.5549,0.5547,0.5545,0.5543,0.5475,0.5475,0.5474,0,0,0,0,0,0,0,0,0,0,0,0,0,0.5718,0.5754,0.5716,0.5658,0.5652,0.565,0.5649,0.5647,0.555,0.5547,0.5545,0.5542,0.5475,0.5475,0.5474,0.5524,0,0,0.5473,0.5473,0,0,0,0,0,0,0,0,0.572,0.5717,0.5667,0.5662,0.5655,0.5605,0.5637,0.5606,0.555,0.5589,0.5544,0.5541,0.552,0.5516,0.5509,0.5521,0.5518,0.5473,0.5473,0.5473,0.5473,0,0,0,0,0,0,0,0.5723,0.5719,0.569,0.5667,0.5659,0.5633,0.5625,0.563,0.557,0.5585,0.5578,0.5571,0.5516,0.551,0.5507,0.5517,0.5473,0.5473,0.5473,0.5473,0.5559,0.5562,0,0,0,0,0,0,0.5734,0.5722,0.5692,0.5688,0.5682,0.5635,0.5626,0.5624,0.5569,0.5559,0.5573,0.5567,0.5512,0.5507,0.5504,0.5553,0.5473,0.5473,0.5473,0.5557,0.556,0.5563,0,0,0,0,0,0,0.5736,0.5733,0.5695,0.5703,0.5696,0.5637,0.5635,0.5624,0.5617,0.5561,0.5549,0.5578,0.5509,0.5504,0.5518,0.555,0.5473,0.5472,0.5554,0.5558,0.5561,0.5657,0,0,0,0,0,0,0.5737,0.5734,0.5753,0.5704,0.5696,0.5712,0.5637,0.5624,0.5617,0.5607,0.5562,0.5552,0.5507,0.5519,0.5518,0.5548,0.5472,0.5551,0.5556,0.556,0.565,0.5663,0.5674,0,0,0,0,0,0.5739,0.5784,0.5755,0.5752,0.5719,0.5714,0.5709,0.5657,0.562,0.5637,0.56,0.5553,0.5548,0.5522,0.5519,0.555,0.5549,0.5554,0.556,0.5645,0.5661,0.5674,0,0,0,0,0,0,0.584,0.5777,0.5744,0.5775,0.575,0.5697,0.5718,0.5676,0.5662,0.5654,0.5589,0.5579,0.56,0.5577,0.5549,0.5592,0.554,0.5546,0.5606,0.5621,0.5632,0.5636,0.5472,0,0,0,0,0,0.5866,0.5868,0.5812,0.5845,0.5834,0.5779,0.5774,0.5736,0.5708,0.5697,0.5661,0.5636,0.5627,0.5623,0.5613,0.5647,0.5633,0.5667,0.5679,0.5689,0.5693,0.5704,0.5716,0.5581,0.5581,0.5581,0,0,0.5919,0.5885,0.589,0.5864,0.584,0.5841,0.5771,0.5776,0.5775,0.5698,0.5707,0.568,0.5647,0.567,0.5678,0.5651,0.5727,0.5696,0.5704,0.5703,0.5711,0.5724,0.5735,0.5585,0.5584,0.5584,0,0,0.6016,0.5992,0.6013,0.5991,0.5956,0.5918,0.5923,0.5876,0.5854,0.5863,0.5803,0.5801,0.579,0.5766,0.5753,0.5836,0.579,0.5835,0.5896,0.5907,0.5918,0.5927,0.5952,0.5962,0.584,0.5841,0.5841,0,0.6086,0.6086,0.603,0.6037,0.6026,0.5955,0.5974,0.5955,0.5919,0.5911,0.5881,0.5861,0.5835,0.5848,0.5868,0.5861,0.5862,0.5839,0.5921,0.5929,0.5937,0.596,0.597,0.5846,0.5845,0.5845,0.5844,0,0.6172,0.6172,0.6194,0.6158,0.6149,0.6163,0.6107,0.6104,0.6066,0.6031,0.6037,0.6002,0.5981,0.5982,0.5946,0.5989,0.5972,0.5933,0.5879,0.5956,0.5976,0.5985,0.5853,0.5852,0.585,0.5849,0,0,0.633,0.6261,0.627,0.625,0.6205,0.6203,0.6212,0.619,0.6187,0.6164,0.6167,0.6157,0.6118,0.6103,0.6063,0.6074,0.6135,0.6032,0.603,0.6048,0.6174,0.6201,0.6213,0.6106,0.6107,0.6108,0.6175,0,0.6414,0.6425,0.6373,0.6397,0.6394,0.6325,0.6332,0.6304,0.627,0.6262,0.6225,0.6216,0.6169,0.6159,0.6166,0.6127,0.6159,0.6121,0.6104,0.6104,0.6111,0.6224,0.6253,0.6318,0.6184,0.6185,0.6186,0,0.6514,0.6493,0.6517,0.6465,0.6462,0.6469,0.6442,0.6436,0.6401,0.6375,0.6357,0.631,0.6312,0.6263,0.6262,0.6238,0.6228,0.6207,0.6208,0.6201,0.6147,0.6216,0.6339,0.6347,0.6199,0.6198,0.6197,0,0.6621,0.66,0.6609,0.6595,0.6537,0.6543,0.6519,0.6481,0.6469,0.6446,0.6437,0.6415,0.6402,0.6385,0.6332,0.6302,0.6335,0.6283,0.6311,0.6312,0.6319,0.6318,0.6437,0.632,0.6319,0.6319,0.6319,0,0.6717,0.6733,0.6655,0.6661,0.6675,0.6614,0.663,0.6599,0.6565,0.6561,0.6502,0.6499,0.6431,0.642,0.6379,0.6381,0.6378,0.6354,0.6342,0.6357,0.636,0.6347,0.634,0.6322,0.6321,0.6321,0.632,0,0.6838,0.6788,0.6792,0.6736,0.6721,0.6734,0.6684,0.6685,0.6648,0.6643,0.6639,0.6579,0.6562,0.6508,0.648,0.6451,0.6465,0.6445,0.6476,0.6468,0.6497,0.6493,0.6608,0.6618,0.6499,0.65,0.6501,0,0.6901,0.6911,0.6855,0.6847,0.6825,0.6816,0.6803,0.6743,0.6732,0.669,0.6695,0.6674,0.6653,0.663,0.6582,0.6558,0.6535,0.6577,0.6531,0.6544,0.6529,0.6528,0.6526,0.6586,0.6587,0.6589,0.659,0,0.7017,0.699,0.6975,0.6949,0.6935,0.6912,0.6886,0.6883,0.6815,0.6805,0.6787,0.6771,0.6739,0.6717,0.6685,0.6658,0.6611,0.6605,0.6609,0.6622,0.6638,0.6625,0.6499,0.6602,0.6601,0.66,0.6599,0.6599,0.7107,0.7111,0.707,0.7053,0.7026,0.7002,0.6999,0.6959,0.6943,0.6912,0.6878,0.6863,0.6823,0.6774,0.675,0.6735,0.6711,0.6719,0.672,0.6721,0.6726,0.6644,0.673,0.673,0.6729,0.6729,0.6729,0,0.7215,0.7185,0.717,0.7134,0.7119,0.7078,0.7045,0.7035,0.7022,0.6989,0.6969,0.6946,0.6923,0.6874,0.6845,0.6843,0.682,0.6837,0.6835,0.6828,0.6752,0.6749,0.6855,0.6855,0.6855,0.6855,0.6855,0.6855,0.727,0.7272,0.724,0.7226,0.7196,0.718,0.7164,0.714,0.7112,0.7089,0.7069,0.7037,0.6996,0.6964,0.694,0.6925,0.6915,0.6938,0.6917,0.6846,0.6834,0.6823,0.6819,0.6938,0.6938,0.6993,0.6993,0.6994]}]]